Slidell, LA

9:08 AM CST on December 17, 2017 (GMT -0600)
Slidell

Weather History for KASD - April, 2013

Change the Weather History Date:

Friday, April 5, 2013

  Actual Average (KNEW) Record (KNEW)
Temperature  
Mean Temperature 59 °F -  
Max Temperature 70 °F 75 °F 86 °F (1982)
Min Temperature 48 °F 61 °F 39 °F (1973)
Degree Days  
Heating Degree Days 6    
Growing Degree Days 9 (Base 50)    
Moisture  
Dew Point 47 °F    
Average Humidity 74    
Maximum Humidity 93    
Minimum Humidity 47    
Precipitation  
Precipitation 0.00 in - - ()
Sea Level Pressure  
Sea Level Pressure 30.08 in    
Wind  
Wind Speed 7 mph (NNW)    
Max Wind Speed 14 mph    
Max Gust Speed 21 mph    
Visibility 10 miles    
Events      
Averages and records for this station are not official NWS values.
T = Trace of Precipitation, MM = Missing Value Source: NWS Daily Summary

Daily Weather History Graph

Daily Weather History Graph

Search for Another Location

Airport or City:

Trip Planner

Search our weather history database for the weather conditions in past years. The results will help you decide how hot, cold, wet, or windy it might be!

Date:

Astronomy

Apr. 05, 2013 Rise Set
Actual Time 6:43 AM CDT 7:20 PM CDT
Civil Twilight 6:19 AM CDT 7:45 PM CDT
Nautical Twilight 5:50 AM CDT 8:13 PM CDT
Astronomical Twilight 5:21 AM CDT 8:42 PM CDT
Moon 3:31 AM CDT (4/5) 3:02 PM CDT (4/5)
Length of Visible Light 13h 26m
Length of Day
12h 37m
Waning Crescent, 23% of the Moon is Illuminated
Apr 5
Waning Crescent
Apr 10
New
Apr 18
First Quarter
Apr 25
Full
May 2
Last Quarter

Hourly Weather History & Observations

Time (CDT) Temp. Dew Point Humidity Pressure Visibility Wind Dir Wind Speed Gust Speed Precip Events Conditions
12:50 AM 51.8 °F 46.4 °F 82% 30.02 in 10.0 mi NW 6.9 mph - N/A   Overcast
12:53 AM 51.1 °F 46.0 °F 83% 30.02 in 10.0 mi NW 6.9 mph - N/A   Overcast
1:19 AM 51.8 °F 46.4 °F 82% 30.02 in 10.0 mi NW 6.9 mph 17.3 mph N/A   Overcast
1:53 AM 51.1 °F 46.0 °F 83% 30.02 in 10.0 mi Variable 5.8 mph - N/A   Overcast
2:53 AM 50.0 °F 45.0 °F 83% 30.04 in 10.0 mi NW 6.9 mph 17.3 mph N/A   Overcast
3:34 AM 50.0 °F 44.6 °F 82% 30.04 in 10.0 mi NNW 6.9 mph 19.6 mph N/A   Overcast
3:53 AM 50.0 °F 45.0 °F 83% 30.04 in 10.0 mi NNW 9.2 mph - N/A   Overcast
4:53 AM 48.9 °F 44.1 °F 83% 30.05 in 10.0 mi NNW 5.8 mph - N/A   Overcast
5:53 AM 48.9 °F 44.1 °F 83% 30.06 in 10.0 mi NNW 5.8 mph - N/A   Overcast
6:53 AM 48.9 °F 44.1 °F 83% 30.08 in 10.0 mi NNW 8.1 mph - N/A   Overcast
7:53 AM 48.9 °F 44.1 °F 83% 30.12 in 10.0 mi NNW 6.9 mph - N/A   Overcast
8:53 AM 50.0 °F 45.0 °F 83% 30.13 in 10.0 mi NNW 8.1 mph - N/A   Overcast
9:53 AM 53.1 °F 46.0 °F 77% 30.14 in 10.0 mi North 6.9 mph - N/A   Overcast
10:53 AM 55.0 °F 46.0 °F 72% 30.15 in 10.0 mi North 13.8 mph - N/A   Overcast
11:53 AM 55.9 °F 46.0 °F 69% 30.15 in 10.0 mi North 11.5 mph 20.7 mph N/A   Overcast
12:53 PM 60.1 °F 46.9 °F 62% 30.14 in 10.0 mi NNE 12.7 mph 19.6 mph N/A   Mostly Cloudy
1:51 PM 62.6 °F 48.2 °F 59% 30.10 in 10.0 mi North - - N/A   Scattered Clouds
1:53 PM 62.1 °F 48.0 °F 60% 30.10 in 10.0 mi North - - N/A   Scattered Clouds
2:53 PM 66.0 °F 48.9 °F 54% 30.08 in 10.0 mi NNW 9.2 mph 18.4 mph N/A   Partly Cloudy
3:53 PM 68.0 °F 48.9 °F 50% 30.06 in 10.0 mi North 13.8 mph 17.3 mph N/A   Clear
4:53 PM 69.1 °F 48.9 °F 49% 30.05 in 10.0 mi North 12.7 mph - N/A   Clear
5:53 PM 70.0 °F 48.9 °F 47% 30.05 in 10.0 mi North 6.9 mph - N/A   Clear
6:53 PM 68.0 °F 48.9 °F 50% 30.06 in 10.0 mi NNW 4.6 mph - N/A   Clear
7:53 PM 59.0 °F 53.1 °F 81% 30.08 in 10.0 mi Calm Calm - N/A   Clear
8:53 PM 55.0 °F 52.0 °F 89% 30.11 in 10.0 mi Calm Calm - N/A   Clear
9:53 PM 53.1 °F 50.0 °F 89% 30.13 in 10.0 mi Calm Calm - N/A   Clear
10:53 PM 52.0 °F 48.9 °F 89% 30.13 in 10.0 mi Calm Calm - N/A   Clear
11:53 PM 50.0 °F 48.0 °F 93% 30.13 in 10.0 mi Calm Calm - N/A   Clear